AL7IH Weather Reports


time (UTC)temp
F
wind
direction
speed
knots
gust
knots
rain 1hr
in
rain 24hr
in
rain mn
in
humidity
%
barometer
mb
20260510083030 68 129 0.0 1.7 0.00 0.00 0.00 86 1012.5
20260510081520 69 141 1.7 2.6 0.00 0.00 0.00 84 1012.6
20260510080029 69 311 0.0 1.7 0.00 0.00 0.00 84 1012.6
20260510074528 70 320 0.0 0.0 0.00 0.00 0.00 83 1012.6
20260510073010 71 320 0.0 0.0 0.00 0.00 0.00 81 1012.8
20260510071521 72 319 0.0 1.7 0.00 0.00 0.00 79 1012.8
20260510070029 72 317 0.0 1.7 0.00 0.00 0.00 78 1012.9
20260510064528 73 299 0.0 1.7 0.00 0.00 0.00 77 1012.9
20260510063026 74 300 0.0 1.7 0.00 0.00 0.00 76 1012.9
20260510061516 74 296 0.0 1.7 0.00 0.00 0.00 76 1012.9
20260510060021 74 274 0.0 2.6 0.00 0.00 0.00 75 1012.9
20260510054525 74 303 0.9 2.6 0.00 0.00 0.00 75 1012.6
20260510053027 73 314 0.0 1.7 0.00 0.00 0.00 77 1012.7
20260510051510 72 285 0.0 1.7 0.00 0.00 0.00 79 1012.7
20260510050018 72 139 0.0 0.0 0.00 0.00 0.00 80 1012.4
20260510044531 73 139 0.0 2.6 0.00 0.00 0.00 79 1012.3
20260510043026 74 317 0.0 1.7 0.00 0.00 0.00 77 1012.2
20260510041529 74 314 0.0 1.7 0.00 0.00 0.00 76 1012.0
20260510040014 75 307 0.0 0.0 0.00 0.00 0.00 74 1012.1
20260510034520 76 307 0.0 0.0 0.00 0.00 0.00 74 1012.1
20260510033023 77 307 0.0 0.0 0.00 0.00 0.00 71 1012.0
20260510031525 78 307 0.0 1.7 0.00 0.00 0.00 69 1011.8
20260510030029 79 308 0.0 1.7 0.00 0.00 0.00 67 1011.6
20260510024519 79 297 0.0 1.7 0.00 0.00 0.00 66 1011.3
20260510023020 79 271 0.0 1.7 0.00 0.00 0.00 66 1011.1
20260510021524 80 289 0.0 1.7 0.00 0.00 0.00 65 1011.0
20260510020027 81 303 0.0 1.7 0.00 0.00 0.00 63 1010.7
20260510014527 81 304 0.0 0.9 0.00 0.00 0.00 61 1010.4
20260510013021 83 286 0.0 1.7 0.00 0.00 0.00 60 1010.2
20260510011537 84 293 0.0 1.7 0.00 0.00 0.00 58 1009.9
20260510010025 85 358 0.9 2.6 0.00 0.00 0.00 56 1009.6
20260510004514 86 356 0.9 5.2 0.00 0.00 0.00 54 1009.4
20260510003024 87 284 1.7 5.2 0.00 0.00 0.00 53 1009.4
20260510001526 88 358 1.7 4.3 0.00 0.00 0.00 51 1009.4
20260510000051 90 302 1.7 6.1 0.00 0.00 0.00 49 1009.4
20260509234510 91 275 0.9 3.5 0.00 0.00 0.00 46 1009.4
20260509233016 91 291 0.9 2.6 0.00 0.00 0.00 45 1009.4
20260509231522 91 318 0.9 3.5 0.00 0.00 0.00 47 1009.3
20260509230026 91 302 0.9 3.5 0.00 0.00 0.00 46 1009.4
20260509224527 92 315 1.7 4.3 0.00 0.00 0.00 47 1009.4
20260509223016 92 298 1.7 3.5 0.00 0.00 0.00 47 1009.4
20260509221518 91 283 0.9 3.5 0.00 0.00 0.00 48 1009.4
20260509220025 91 338 0.9 4.3 0.00 0.00 0.00 49 1009.5
20260509214532 91 278 0.9 2.6 0.00 0.00 0.00 49 1009.5
20260509213028 89 302 0.0 3.5 0.00 0.00 0.00 52 1009.6
20260509211518 91 298 0.9 3.5 0.00 0.00 0.00 52 1009.8
20260509210031 91 273 1.7 2.6 0.00 0.00 0.00 50 1010.0
20260509204534 89 358 1.7 5.2 0.00 0.00 0.00 54 1010.4
20260509203027 87 326 0.0 2.6 0.00 0.00 0.00 57 1010.5
20260509201514 89 315 0.9 3.5 0.00 0.00 0.00 52 1010.8
20260509200022 89 359 0.9 5.2 0.00 0.00 0.00 55 1011.0
20260509194528 89 250 0.0 4.3 0.00 0.00 0.00 52 1011.3
20260509193029 87 316 1.7 4.3 0.00 0.00 0.00 56 1011.5
20260509191528 88 323 0.9 3.5 0.00 0.00 0.00 53 1011.5
20260509190019 89 16 2.6 5.2 0.00 0.00 0.00 55 1011.7
20260509184538 87 27 1.7 6.1 0.00 0.00 0.00 55 1011.9
20260509183024 86 293 0.0 4.3 0.00 0.00 0.00 62 1012.2
20260509181526 86 23 0.9 5.2 0.00 0.00 0.00 58 1012.5
20260509180029 87 282 1.7 5.2 0.00 0.00 0.00 59 1012.5
20260509174518 85 359 2.6 6.1 0.00 0.00 0.00 63 1012.7
20260509173023 84 356 0.9 3.5 0.00 0.00 0.00 66 1013.0
20260509171533 84 313 1.7 4.3 0.00 0.00 0.00 67 1012.9
20260509170030 83 335 0.9 3.5 0.00 0.00 0.00 68 1012.9
20260509164528 82 281 0.9 4.3 0.00 0.00 0.00 70 1013.0
20260509163025 81 4 1.7 6.1 0.00 0.00 0.00 71 1013.0
20260509161529 82 303 0.9 6.1 0.00 0.00 0.00 75 1012.9
20260509160034 80 358 0.9 6.1 0.00 0.00 0.00 77 1013.0
20260509154529 80 288 1.7 7.8 0.00 0.00 0.00 78 1012.9
20260509153031 79 323 0.9 5.2 0.00 0.00 0.00 78 1013.1
20260509151524 78 359 0.9 2.6 0.00 0.00 0.00 80 1013.4
20260509150036 77 294 0.9 2.6 0.00 0.00 0.00 83 1013.4
20260509144530 76 4 0.0 1.7 0.00 0.00 0.00 84 1013.5
20260509143028 75 248 0.0 0.9 0.00 0.00 0.00 87 1013.3
20260509141529 73 245 0.0 0.0 0.00 0.00 0.00 89 1013.1
20260509140027 73 214 0.0 0.0 0.00 0.00 0.00 90 1012.9
20260509134545 73 214 0.0 0.0 0.00 0.00 0.00 91 1012.7
20260509133020 73 213 0.9 3.5 0.00 0.00 0.00 91 1012.9
20260509131521 72 108 0.0 1.7 0.00 0.00 0.00 92 1012.9
20260509130031 72 200 0.0 0.0 0.00 0.00 0.00 92 1013.2
20260509124510 71 203 0.0 0.0 0.00 0.00 0.00 93 1012.9
20260509123014 71 203 0.0 1.7 0.00 0.00 0.00 93 1012.9
20260509121537 71 255 0.0 0.0 0.00 0.00 0.00 94 1012.8
20260509120022 71 255 0.0 3.5 0.00 0.00 0.00 94 1013.2
20260509114535 70 184 0.0 2.6 0.00 0.00 0.00 94 1013.0
20260509113020 70 278 0.0 0.0 0.00 0.00 0.00 94 1012.2
20260509111518 70 335 0.0 0.0 0.00 0.00 0.00 93 1011.8
20260509110022 70 335 0.0 1.7 0.00 0.00 0.00 93 1012.3
20260509104539 70 300 0.0 1.7 0.00 0.00 0.00 94 1012.5
20260509103012 70 116 0.0 0.0 0.00 0.00 0.00 94 1012.2
20260509101519 70 116 0.0 0.0 0.00 0.00 0.00 93 1012.1
20260509100020 70 115 0.0 0.0 0.00 0.00 0.00 93 1011.9
20260509094532 70 160 0.0 1.7 0.00 0.00 0.00 93 1011.5
20260509093028 70 122 0.0 0.9 0.00 0.00 0.00 93 1011.5
20260509091524 70 158 0.0 1.7 0.00 0.00 0.00 93 1011.4
20260509090016 70 150 0.0 1.7 0.00 0.00 0.00 92 1011.3
20260509084524 70 169 0.0 0.9 0.00 0.00 0.00 92 1011.3